N1EDF Weather Reports


time (UTC)temp
C
wind
direction
speed
KPH
gust
KPH
rain 1hr
cm
rain 24hr
cm
rain mn
cm
humidity
%
barometer
mb
20260503025525 8 150 0.0 0.0 0.00 0.00 0.00 57 1010.3
20260503025039 8 150 0.0 0.0 0.00 0.00 0.00 57 1010.3
20260503024549 8 150 0.0 0.0 0.00 0.00 0.00 57 1010.2
20260503024005 8 150 0.0 0.0 0.00 0.00 0.00 57 1010.2
20260503023515 8 150 0.0 0.0 0.00 0.00 0.00 57 1010.2
20260503023031 8 150 0.0 0.0 0.00 0.00 0.00 57 1010.1
20260503022539 8 150 0.0 0.0 0.00 0.00 0.00 57 1010.1
20260503022056 8 150 0.0 0.0 0.00 0.00 0.00 57 1010.2
20260503021519 8 150 0.0 0.0 0.00 0.00 0.00 57 1010.3
20260503021019 8 150 0.0 0.0 0.00 0.00 0.00 57 1010.3
20260503020534 8 150 0.0 0.0 0.00 0.00 0.00 57 1010.4
20260503020043 8 150 0.0 0.0 0.00 0.00 0.00 57 1010.6
20260503015557 8 150 0.0 0.0 0.00 0.00 0.00 57 1010.6
20260503015009 8 150 0.0 0.0 0.00 0.00 0.00 57 1010.7
20260503014523 8 150 0.0 0.0 0.00 0.00 0.00 57 1010.8
20260503014035 8 150 0.0 0.0 0.00 0.00 0.00 57 1010.9
20260503013548 8 150 0.0 0.0 0.00 0.00 0.00 57 1010.8
20260503013057 8 150 0.0 0.0 0.00 0.00 0.00 57 1010.8
20260503012513 8 150 0.0 0.0 0.00 0.00 0.00 57 1010.8
20260503012022 8 150 0.0 0.0 0.00 0.00 0.00 57 1010.7
20260503011537 8 150 0.0 0.0 0.00 0.00 0.00 57 1010.6
20260503011047 8 150 0.0 0.0 0.00 0.00 0.00 57 1010.6
20260503010503 8 150 0.0 0.0 0.00 0.00 0.00 57 1010.4
20260503010016 8 150 0.0 0.0 0.00 0.00 0.00 57 1010.3
20260503005527 8 150 0.0 0.0 0.00 0.00 0.00 57 1010.2
20260503005037 8 150 0.0 0.0 0.00 0.00 0.00 57 1010.1
20260503004551 8 150 0.0 0.0 0.00 0.00 0.00 57 1010.2
20260503004006 8 150 0.0 0.0 0.00 0.00 0.00 57 1010.2
20260503003517 8 150 0.0 0.0 0.00 0.00 0.00 57 1010.2
20260503003027 8 150 0.0 0.0 0.00 0.00 0.00 57 1010.2
20260503002541 8 150 0.0 0.0 0.00 0.00 0.00 57 1010.2
20260503002051 8 150 0.0 0.0 0.00 0.00 0.00 61 1010.2
20260503001511 8 150 0.0 0.0 0.00 0.00 0.00 63 1010.2
20260503001023 8 150 0.0 0.0 0.00 0.00 0.00 64 1010.2
20260503000531 8 150 0.0 0.0 0.00 0.00 0.00 65 1010.0
20260503000046 8 150 0.0 0.0 0.00 0.00 0.00 69 1010.1
20260502235555 8 150 0.0 0.0 0.00 0.00 0.00 69 1010.1
20260502235014 8 150 0.0 0.0 0.00 0.00 0.00 69 1010.0
20260502234528 8 150 0.0 0.0 0.00 0.00 0.00 66 1010.1
20260502234038 8 150 0.0 0.0 0.00 0.00 0.00 67 1010.0
20260502233545 8 150 0.0 0.0 0.00 0.00 0.00 67 1010.0
20260502233059 8 150 0.0 0.0 0.00 0.00 0.00 68 1009.9
20260502233001 8 150 0.0 0.0 0.00 0.00 0.00 69 1010.0
20260502232515 8 150 0.0 0.0 0.00 0.00 0.00 69 1009.9
20260502232025 8 150 0.0 0.0 0.00 0.00 0.00 70 1010.0
20260502231535 8 150 0.0 0.0 0.00 0.00 0.00 68 1010.0
20260502231049 8 150 0.0 0.0 0.00 0.00 0.00 69 1009.9
20260502230600 9 150 0.0 0.0 0.00 0.00 0.00 69 1009.8
20260502230502 9 150 0.0 0.0 0.00 0.00 0.00 70 1009.8
20260502230022 9 150 0.0 0.0 0.00 0.00 0.00 73 1009.9
20260502225528 9 150 0.0 0.0 0.00 0.00 0.00 74 1009.9
20260502225039 9 150 0.0 0.0 0.00 0.00 0.00 73 1009.9
20260502224550 9 150 0.0 0.0 0.00 0.00 0.00 77 1009.8
20260502224006 9 150 0.0 0.0 0.00 0.00 0.00 82 1009.7
20260502223515 9 150 0.0 0.0 0.00 0.00 0.00 82 1009.7
20260502223029 10 150 0.0 0.0 0.00 0.00 0.00 85 1009.8
20260502222540 10 150 0.0 0.0 0.00 0.00 0.00 85 1009.8
20260502222054 10 150 0.0 0.0 0.00 0.00 0.00 83 1009.9
20260502221510 10 150 0.0 0.0 0.00 0.00 0.00 89 1009.9
20260502221019 10 150 0.0 0.0 0.00 0.00 0.00 93 1009.9
20260502220536 10 150 0.0 0.0 0.00 0.00 0.00 95 1009.9
20260502220043 10 150 0.0 0.0 0.00 0.00 0.00 97 1009.9
20260502215559 10 150 0.0 0.0 0.00 0.00 0.00 100 1010.0
20260502215012 11 150 0.0 0.0 0.00 0.00 0.00 100 1010.0
20260502214523 11 150 0.0 0.0 0.00 0.00 0.00 100 1010.0
20260502214033 11 150 0.0 0.0 0.00 0.00 0.00 100 1010.0
20260502213547 11 144 0.0 0.0 0.00 0.00 0.00 100 1010.0
20260502213100 12 145 0.0 0.0 0.00 0.00 0.00 100 1010.0
20260502212516 12 145 0.0 0.0 0.00 0.00 0.00 100 1010.0
20260502212025 12 144 0.0 0.0 0.00 0.00 0.00 100 1010.0
20260502211537 12 145 1.6 0.0 0.00 0.00 0.00 100 1009.9
20260502211050 13 142 0.0 0.0 0.00 0.00 0.00 100 1009.8
20260502210503 13 169 0.0 0.0 0.00 0.00 0.00 100 1009.7
20260502210013 13 190 0.0 0.0 0.00 0.00 0.00 100 1009.6
20260502205527 13 190 1.6 0.0 0.00 0.00 0.00 100 1009.6
20260502205037 13 190 1.6 0.0 0.00 0.00 0.00 100 1009.6
20260502204556 13 165 1.6 0.0 0.00 0.00 0.00 100 1009.6
20260502204007 13 206 1.6 0.0 0.00 0.00 0.00 100 1009.6
20260502203518 13 173 1.6 0.0 0.00 0.00 0.00 100 1009.6
20260502203027 13 188 1.6 0.0 0.00 0.00 0.00 100 1009.6
20260502202541 13 149 1.6 0.0 0.00 0.00 0.00 100 1009.7
20260502202051 13 210 1.6 0.0 0.00 0.00 0.00 100 1009.7
20260502201507 13 194 3.2 0.0 0.00 0.00 0.00 100 1009.8
20260502201020 13 167 1.6 0.0 0.00 0.00 0.00 100 1009.8
20260502200532 13 189 1.6 0.0 0.00 0.00 0.00 100 1009.8
20260502200048 13 216 1.6 0.0 0.00 0.00 0.00 100 1009.9
20260502195554 13 133 1.6 0.0 0.00 0.00 0.00 100 1009.9
20260502195009 13 154 3.2 0.0 0.00 0.00 0.00 100 1010.0
20260502194522 13 263 1.6 0.0 0.00 0.00 0.00 100 1010.1
20260502194035 13 136 1.6 0.0 0.00 0.00 0.00 100 1010.1
20260502193543 13 143 1.6 0.0 0.00 0.00 0.00 100 1010.1
20260502193104 12 140 1.6 0.0 0.00 0.00 0.00 100 1010.2
20260502192509 12 169 3.2 0.0 0.00 0.00 0.00 100 1010.3
20260502192023 12 192 3.2 0.0 0.00 0.00 0.00 100 1010.4
20260502191540 13 144 1.6 0.0 0.00 0.00 0.00 100 1010.4
20260502191047 12 271 3.2 0.0 0.00 0.00 0.00 100 1010.4
20260502190558 12 150 3.2 0.0 0.00 0.00 0.00 100 1010.4
20260502190014 12 167 3.2 0.0 0.00 0.00 0.00 100 1010.4
20260502185523 12 138 3.2 0.0 0.00 0.00 0.00 100 1010.5
20260502185037 12 265 1.6 0.0 0.00 0.00 0.00 100 1010.5
20260502184557 12 279 1.6 0.0 0.00 0.00 0.00 100 1010.5
20260502184003 12 186 1.6 0.0 0.00 0.00 0.00 100 1010.6
20260502183515 12 196 1.6 0.0 0.00 0.00 0.00 100 1010.6
20260502183031 12 275 1.6 0.0 0.00 0.00 0.00 100 1010.5
20260502182536 12 156 1.6 0.0 0.00 0.00 0.00 100 1010.4
20260502182051 12 212 1.6 0.0 0.00 0.00 0.00 100 1010.5
20260502181508 12 156 1.6 0.0 0.00 0.00 0.00 100 1010.5
20260502181017 13 218 1.6 0.0 0.00 0.00 0.00 100 1010.6
20260502180537 13 187 1.6 0.0 0.00 0.00 0.00 100 1010.5
20260502170501 12 156 3.2 0.0 0.00 0.00 0.00 100 1011.1
20260502164100 12 179 0.0 0.0 0.00 0.00 0.00 100 1011.1
20260502164002 12 177 0.0 0.0 0.00 0.00 0.00 100 1011.1
20260502163515 12 177 0.0 0.0 0.00 0.00 0.00 100 1011.1
20260502163025 12 210 0.0 0.0 0.00 0.00 0.00 100 1010.9
20260502162539 12 205 0.0 0.0 0.00 0.00 0.00 100 1011.0
20260502162050 12 204 0.0 0.0 0.00 0.00 0.00 100 1011.0
20260502161506 11 204 0.0 0.0 0.00 0.00 0.00 100 1010.9
20260502161020 11 205 0.0 0.0 0.00 0.00 0.00 100 1011.1
20260502160531 11 205 0.0 0.0 0.00 0.00 0.00 100 1011.3
20260502152024 10 197 0.0 0.0 0.00 0.00 0.00 77 1011.8
20260502151537 10 198 0.0 0.0 0.00 0.00 0.00 58 1012.0
20260502151041 10 198 0.0 0.0 0.00 0.00 0.00 64 1011.7
20260502150547 10 198 0.0 0.0 0.00 0.00 0.00 60 1011.6
20260502130547 7 334 0.0 0.0 0.00 0.00 0.00 57 1012.8
20260502123553 7 334 0.0 0.0 0.00 0.00 0.00 57 1012.8
20260502123005 8 334 0.0 0.0 0.00 0.00 0.00 57 1012.8
20260502122519 8 334 0.0 0.0 0.00 0.00 0.00 57 1012.6
20260502122029 7 335 0.0 0.0 0.00 0.00 0.00 57 1012.3
20260502121550 7 335 0.0 0.0 0.00 0.00 0.00 57 1012.1
20260502121054 7 335 0.0 0.0 0.00 0.00 0.00 57 1012.0
20260502120510 7 335 0.0 0.0 0.00 0.00 0.00 57 1012.1
20260502115533 7 335 0.0 0.0 0.00 0.00 0.00 57 1011.8
20260502115050 7 335 0.0 0.0 0.00 0.00 0.00 57 1011.7
20260502114558 7 335 0.0 0.0 0.00 0.00 0.00 57 1011.7
20260502114013 7 335 0.0 0.0 0.00 0.00 0.00 57 1011.8
20260502113524 7 335 0.0 0.0 0.00 0.00 0.00 57 1011.9
20260502113038 7 335 0.0 0.0 0.00 0.00 0.00 57 1011.9
20260502112547 7 335 0.0 0.0 0.00 0.00 0.00 57 1012.0
20260502112004 7 335 0.0 0.0 0.00 0.00 0.00 57 1011.9
20260502111519 7 335 0.0 0.0 0.00 0.00 0.00 57 1011.7
20260502111027 7 335 0.0 0.0 0.00 0.00 0.00 57 1011.8
20260502110537 7 335 0.0 0.0 0.00 0.00 0.00 60 1011.7
20260502110055 7 334 0.0 0.0 0.00 0.00 0.00 65 1011.9
20260502105507 7 335 0.0 0.0 0.00 0.00 0.00 67 1011.6
20260502105018 7 334 0.0 0.0 0.00 0.00 0.00 68 1011.8
20260502104528 7 334 0.0 0.0 0.00 0.00 0.00 75 1011.4
20260502104041 7 334 0.0 0.0 0.00 0.00 0.00 78 1011.4
20260502103554 7 334 0.0 0.0 0.00 0.00 0.00 76 1011.5
20260502103007 7 334 0.0 0.0 0.00 0.00 0.00 75 1011.4
20260502102518 7 334 0.0 0.0 0.00 0.00 0.00 71 1011.4
20260502102032 7 334 0.0 0.0 0.00 0.00 0.00 66 1011.3
20260502101550 7 334 0.0 0.0 0.00 0.00 0.00 65 1011.4
20260502101055 6 334 0.0 0.0 0.00 0.00 0.00 61 1011.3
20260502100516 6 334 0.0 0.0 0.00 0.00 0.00 58 1011.1
20260502091516 7 334 0.0 0.0 0.00 0.00 0.00 77 1010.9
20260502091026 7 334 0.0 0.0 0.00 0.00 0.00 81 1011.0
20260502090539 7 334 0.0 0.0 0.00 0.00 0.00 86 1011.1
20260502071513 7 334 0.0 0.0 0.00 0.00 0.00 99 1011.1
20260502071027 8 334 0.0 0.0 0.00 0.00 0.00 100 1010.9
20260502070541 8 334 0.0 0.0 0.00 0.00 0.00 100 1010.9
20260502070101 8 334 0.0 0.0 0.00 0.00 0.00 100 1011.0
20260502065504 8 334 0.0 0.0 0.00 0.00 0.00 100 1011.5
20260502065019 7 334 0.0 0.0 0.00 0.00 0.00 100 1011.6
20260502064529 7 334 0.0 0.0 0.00 0.00 0.00 100 1011.8
20260502064041 7 334 0.0 0.0 0.00 0.00 0.00 100 1011.6
20260502063553 7 334 0.0 0.0 0.00 0.00 0.00 100 1011.4
20260502063022 7 334 0.0 0.0 0.00 0.00 0.00 100 1011.3
20260502062518 6 334 0.0 0.0 0.00 0.00 0.00 100 1011.1
20260502062031 6 334 0.0 0.0 0.00 0.00 0.00 100 1011.1
20260502061543 6 334 0.0 0.0 0.00 0.00 0.00 100 1011.1
20260502061055 6 334 0.0 0.0 0.00 0.00 0.00 100 1011.1
20260502060513 6 334 0.0 0.0 0.00 0.00 0.00 100 1011.3
20260502060021 6 334 0.0 0.0 0.00 0.00 0.00 100 1011.1
20260502055537 6 334 0.0 0.0 0.00 0.00 0.00 100 1011.1
20260502055046 6 334 0.0 0.0 0.00 0.00 0.00 100 1011.2
20260502054502 6 334 0.0 0.0 0.00 0.00 0.00 100 1011.3
20260502054011 6 334 0.0 0.0 0.00 0.00 0.00 100 1011.2
20260502053525 6 334 0.0 0.0 0.00 0.00 0.00 100 1011.2
20260502053036 6 334 0.0 0.0 0.00 0.00 0.00 100 1011.2
20260502052546 6 334 0.0 0.0 0.00 0.00 0.00 100 1011.2
20260502052054 6 334 0.0 0.0 0.00 0.00 0.00 100 1011.3
20260502051510 6 334 0.0 0.0 0.00 0.00 0.00 100 1011.3
20260502051019 6 334 0.0 0.0 0.00 0.00 0.00 100 1011.2
20260502050533 6 334 0.0 0.0 0.00 0.00 0.00 100 1011.2
20260502050044 6 334 0.0 0.0 0.00 0.00 0.00 100 1011.2
20260502045600 6 334 0.0 0.0 0.00 0.00 0.00 100 1011.2
20260502045013 6 334 0.0 0.0 0.00 0.00 0.00 100 1011.2
20260502044524 6 334 0.0 0.0 0.00 0.00 0.00 100 1011.3
20260502044035 6 334 0.0 0.0 0.00 0.00 0.00 100 1011.4
20260502043548 6 334 0.0 0.0 0.00 0.00 0.00 100 1011.5
20260502043111 6 334 0.0 0.0 0.00 0.00 0.00 100 1011.5
20260502042514 6 334 0.0 0.0 0.00 0.00 0.00 100 1011.5
20260502042024 6 334 0.0 0.0 0.00 0.00 0.00 100 1011.4
20260502041600 6 334 0.0 0.0 0.00 0.00 0.00 100 1011.4
20260502041047 7 334 0.0 0.0 0.00 0.00 0.00 100 1011.4
20260502040503 7 334 0.0 0.0 0.00 0.00 0.00 100 1011.4
20260502040021 7 334 0.0 0.0 0.00 0.00 0.00 100 1011.4
20260502035518 7 334 0.0 0.0 0.00 0.00 0.00 100 1011.3
20260502035028 7 334 0.0 0.0 0.00 0.00 0.00 100 1011.4
20260502034542 7 334 0.0 0.0 0.00 0.00 0.00 100 1011.4
20260502034052 7 334 0.0 0.0 0.00 0.00 0.00 100 1011.4
20260502033513 7 334 0.0 0.0 0.00 0.00 0.00 100 1011.5
20260502033020 7 334 0.0 0.0 0.00 0.00 0.00 100 1011.5
20260502032531 7 334 0.0 0.0 0.00 0.00 0.00 100 1011.5
20260502032042 7 334 0.0 0.0 0.00 0.00 0.00 100 1011.4
20260502031556 7 334 0.0 0.0 0.00 0.00 0.00 100 1011.3
20260502031008 7 334 0.0 0.0 0.00 0.00 0.00 100 1011.2
20260502030522 7 334 0.0 0.0 0.00 0.00 0.00 100 1011.1
20260502030032 7 334 0.0 0.0 0.00 0.00 0.00 100 1011.0